This is the latest recevied weather packets stored in our database for station/object JH0KSP-13. If no packets are shown the sender has not sent any weather packets the latest 10 day(s).
| Time | Temp. | Humidity | Pressure | Rain* | Wind** | Luminosity | Snow |
|---|---|---|---|---|---|---|---|
| 1777642017 | 10° C | 100% | 999.8 hPa | 0 mm | - | - | - |
| 1777640815 | 10° C | 99% | 999.7 hPa | 0 mm | - | - | - |
| 1777638415 | 10° C | 94% | 999.7 hPa | 0 mm | - | - | - |
| 1777637216 | 10° C | 95% | 999.1 hPa | 0 mm | - | - | - |
| 1777636017 | 10° C | 96% | 999 hPa | 0 mm | - | - | - |
| 1777635609 | 10° C | 95% | 998.7 hPa | 0 mm | - | - | - |
| 1777635009 | 10° C | 91% | 998.6 hPa | 0 mm | - | - | - |
| 1777634816 | 10° C | 91% | 998.6 hPa | 0 mm | - | - | - |
| 1777634408 | 10° C | 92% | 998.5 hPa | 0 mm | - | - | - |
| 1777633616 | 10° C | 91% | 998.2 hPa | 0 mm | - | - | - |
| 1777633209 | 10° C | 89% | 998.1 hPa | 0 mm | - | - | - |
| 1777632415 | 11.11° C | 92% | 998.4 hPa | 0 mm | - | - | - |
| 1777631407 | 10° C | 89% | 998.3 hPa | 0 mm | - | - | - |
| 1777631216 | 10° C | 89% | 998.3 hPa | 0 mm | - | - | - |
| 1777630809 | 10° C | 90% | 997.9 hPa | 0 mm | - | - | - |
| 1777630209 | 11.11° C | 88% | 997.9 hPa | 0 mm | - | - | - |
| 1777630016 | 11.11° C | 86% | 998.2 hPa | 0 mm | - | - | - |
| 1777628816 | 12.22° C | 89% | 998.3 hPa | 0 mm | - | - | - |
| 1777627615 | 12.22° C | 90% | 997.3 hPa | 0 mm | - | - | - |
| 1777626416 | 12.22° C | 98% | 996.8 hPa | 0 mm | - | - | - |
| 1777625217 | 12.22° C | 99% | 996.8 hPa | 0 mm | - | - | - |
| 1777624016 | 12.78° C | 96% | 996 hPa | 0 mm | - | - | - |
| 1777622816 | 13.89° C | 90% | 995.7 hPa | 0 mm | - | - | - |
| 1777621615 | 15° C | 100% | 995 hPa | 0 mm | - | - | - |
| 1777621208 | 15° C | 100% | 995 hPa | 0 mm | - | - | - |
* Rain latest hour (hover to see other rain measurements)
** Current wind speed in m/s (hover to see current wind gust speed)